Location: Cactus School
(34.5700°N, 118.0931°W)
Time: 04:28:06
(UTC-07:00)

Transit 4A - Pass Details

Date: 22 April 2024
Orbit: 871 x 971 km, 66.8° (Epoch: 20 May)

Event Time Altitude Azimuth Distance (km) Brightness Sun altitude
Rises 20:45:08 0° 348° (NNW) 3,464 11.5 -15.1°
Reaches altitude 10° 20:48:26 10° 7° (N) 2,526 10.4 -15.7°
Maximum altitude 20:52:24 18° 50° (NE) 1,996 9.4 -16.4°
Enters shadow 20:54:28 16° 76° (ENE) 2,160 9.4 -16.8°
Drops below altitude 10° 20:56:22 10° 93° (E) 2,542 - -17.1°
Sets 20:59:41 0° 111° (ESE) 3,493 - -17.7°
